Regional Weather Roundup
Issued by NWS Charleston, SC

Current Version | Previous Version | Graphics & Text | Print | Product List | Glossary On
Versions: 1 2 3 4 5 6 7 8 9 10 11 12 13 14 15 16 17 18 19 20 21 22 23 24 25 26 27 28 29 30 31 32 33 34 35 36 37 38 39 40 41 42 43 44 45 46 47 48 49 50
000
ASUS42 KCHS 290210
RWRCHS
REGIONAL WEATHER ROUNDUP
NATIONAL WEATHER SERVICE CHARLESTON SC
900 PM EST SUN DEC 28 2014

NOTE: "FAIR" INDICATES FEW OR NO CLOUDS BELOW 12,000 FEET WITH NO
SIGNIFICANT WEATHER AND/OR OBSTRUCTIONS TO VISIBILITY.

NOT ALL STATIONS ARE QUALITY CONTROLLED BY THE NATIONAL
WEATHER SERVICE. USE DATA WITH CAUTION...ESPECIALLY
DEWPOINT OBSERVATIONS.

SCZ027-030-031-034>040-042>050-290300-
...SOUTHEAST SOUTH CAROLINA...

CITY           SKY/WX    TMP DP  RH WIND       PRES   REMARKS
N CHARLESTON   MOCLDY    63  61  93 SW9       30.08R
WATERFRONT PRK   N/A     63 N/A N/A SW6         N/A
MOUNT PLEASANT FAIR      64  64 100 S8        30.08S
PINOPOLIS        N/A     66  63  88 N6        29.99S
MONCKS CORNER  MOCLDY    64  63  94 CALM      30.08R
SUMMERVILLE    CLOUDY    64  64 100 CALM      30.09R
BEAUFORT MCAS  MOCLDY    61  60  97 SE3       30.07F
BEAUFORT ARPT  CLOUDY    63  63 100 S3        30.07S
HILTON HEAD IS MOCLDY    63  63 100 CALM      30.09S
WALTERBORO     CLOUDY    66 N/A N/A CALM      30.08S
ALLENDALE      CLOUDY    64  63  94 CALM      30.07S

...SOUTHERN MIDLANDS AND PEE DEE...

CITY           SKY/WX    TMP DP  RH WIND       PRES   REMARKS
GEORGETOWN     NOT AVBL
KINGSTREE      NOT AVBL
ORANGEBURG     CLOUDY    62  59  90 SW3       30.07S
BARNWELL         N/A    N/A N/A N/A CALM      30.08S
AIKEN          CLOUDY    59  59 100 CALM      30.10S
MANNING        CLOUDY    66  64  94 CALM      30.08R
COLUMBIA       CLOUDY    62  59  90 NW3       30.06F
SUMTER         CLOUDY    61  59  91 SW5       30.06S
FLORENCE       PTCLDY    62  59  90 CALM      30.06S
MYRTLE BEACH   NOT AVBL
N MYRTLE BEACH MOCLDY    62  59  90 CALM      30.07S

$$

GAZ063-065-086>088-099>101-113>116-118-119-134>141-150-290300-
...SOUTHEAST GEORGIA...

CITY           SKY/WX    TMP DP  RH WIND       PRES   REMARKS
SAVANNAH ARPT  PTCLDY    66  62  87 S5        30.08R
HUNTER AAF     PTCLDY    65  64  96 S5        30.06S
FORT STEWART   CLEAR     66  63  89 CALM      30.06S
STATESBORO     CLOUDY    59  59 100 CALM      30.08R
SYLVANIA       PTCLDY    63  63 100 CALM      30.08S
CLAXTON        FAIR      61  61 100 CALM      30.07S

...CSRA...CENTRAL AND FAR SOUTHEAST GEORGIA...

CITY           SKY/WX    TMP DP  RH WIND       PRES   REMARKS
THOMSON        CLOUDY    59  59 100 CALM      30.11S VSB 1/4
AUGUSTA-BUSH   MOCLDY    59  58  96 CALM      30.06S
AUGUSTA-DANIEL CLOUDY    63  60  90 S5        30.07S
SWAINSBORO     FAIR      68  68 100 CALM      30.08S
VIDALIA        MOCLDY    63  63 100 CALM      30.08R
EASTMAN        FOG       62  62 100 CALM      30.09S VSB 1/2
HAZLEHURST     FAIR      64  64 100 S3        30.06R
ALMA           CLEAR     66  61  84 S5        30.07S
WAYCROSS       CLEAR     66  64  94 SW6       30.08F
JESUP          FAIR      68  66  94 SW3       30.08S
BAXLEY         FAIR      64  63  94 SW3       30.07S
BRUNSWICK      PTCLDY    64  63  94 SW3       30.10S
SAINT SIMONS   MOCLDY    64  60  87 CALM      30.10R

$$

SCZ027-028-034-036>038-045-046-048>050-GAZ119-141-290300-
...LAKE AND SUPPLEMENTAL COASTAL OBSERVATIONS...

STATION/POSITION TIME  TEMP    WIND        PRES    WAVE   SWELL
                       AIR SEA DIR/SP/G            HT/PER HT/PER/DIR
                 (UTC) (F)     (DEG/KT/KT) (MB)    (FT/S) (FT/S/D)
UPR LAKE MARION  NOT AVBL
WINYAH BAY       0100   63     190/  4     1017.0S
LAKE MURRAY      0100   60     240/  3/  4 1017.6F
ACE BASIN NERRS  0100   60        CALM     1018.0S
FORT PULASKI     0200          160/  3/  4   N/A
SAPELO ISLAND    0100   65     170/  5     1018.0S

$$

ANZ835-935-AMZ111-154-330-350-352-354-370-450-454-472-290300-
...C-MAN AND BUOY OBSERVATIONS...

STATION/POSITION TIME  TEMP    WIND        PRES    WAVE   SWELL
                       AIR SEA DIR/SP/G            HT/PER HT/PER/DIR
                 (UTC) (F)     (DEG/KT/KT) (MB)    (FT/S) (FT/S/D)
BUOY 41004       0200   73 74  210/ 14/ 17 1018.1F   3/13   2/13
BUOY 41008       0200   62 59  190/ 10/ 10 1019.0R   3/14   3/ 70/14
FOLLY BEACH CMAN 0100   61     230/  6/  7 1019.0R
CAPERS NEARSHORE 0100   58     220/  4/  6   N/A
FRIPP NEARSHORE  NOT AVBL


STATION/POSITION TIME  TEMP    WIND        PRES    WAVE   SWELL
                       AIR SEA DIR/SP/G            HT/PER HT/PER/DIR
                 (UTC) (F)     (DEG/KT/KT) (MB)    (FT/S) (FT/S/D)
5E ST. MARYS GA  0200      61                N/A     2/14   2/100/14
FRYING PAN BUOY  0200   69 68  230/  8/ 10 1018.9F   4/14   3/110/14
BUOY 41025       0200   68                 1017.7S   3/13
CAPE LOOKOUT NC  0100   64     230/  9/ 14 1017.8R
BUOY 41002       0112   74 74  220/ 17/ 19 1020.7F   5/12   3/ 70/12
BUOY 41010       0200   76 77  160/  6/  6 1020.9F   4/14   3/ 70/14
ST AUGUSTINE FL  0200   66     190/  6/  6 1020.1F


$$



USA.gov is the U.S. government's official web portal to all federal, state and local government web resources and services.